AirNav   Everest Fuels
 
 1548 users online  

H70 Stratford Field Airport
Stratford, Texas, USA

GOING TO STRATFORD?


FAA INFORMATION EFFECTIVE 21 APRIL 2022

Location

FAA Identifier: H70
Lat/Long: 36-20-44.3000N 102-02-57.3000W
36-20.738333N 102-02.955000W
36.3456389,-102.0492500
(estimated)
Elevation: 3668.2 ft. / 1118.1 m (surveyed)
Variation: 09E (1985)
From city: 1 mile NE of STRATFORD, TX
Time zone: UTC -5 (UTC -6 during Standard Time)
Zip code: 79084

Airport Operations

Airport use: Open to the public
Activation date: 12/1946
Control tower: no
ARTCC: ALBUQUERQUE CENTER
FSS: FORT WORTH FLIGHT SERVICE STATION
NOTAMs facility: FTW (NOTAM-D service available)
Attendance: UNATNDD
Wind indicator: lighted
Segmented circle: no
Lights: ACTVT LIRL RWY 04/22 5X - CTAF.

Airport Communications

CTAF: 122.9
  • COMMUNICATIONS PRVDD BY FORT WORTH RADIO ON FREQS 122.2 & 255.4 (DALHART RCO).

Nearby radio navigation aids

VOR radial/distance  VOR name  Freq  Var
DHTr046/28.4DALHART VORTAC112.0012E

 
NDB name  Hdg/Dist  Freq  Var  ID
GUYMON222/34.027509EGUY --. ..- -.--

Airport Services

Fuel available: EMERGENCY FUEL 100LL ONLY.
Parking: hangars and tiedowns
Airframe service: NONE
Powerplant service: NONE
Bottled oxygen: NONE
Bulk oxygen: NONE

Runway Information

Runway 4/22

Dimensions: 3023 x 32 ft. / 921 x 10 m
Surface: asphalt, in fair condition
RWY 04 END, BROKEN ASPH & LOOSE STONES.
Weight bearing capacity: 
Single wheel: 9.0
Runway edge lights: non-standard
LIRL LCTD 33 FT FM EDGE OF PAVEMENT. NONSTD SOLAR THR LGTS.
Runway edge markings: RWY NOT MKD.
RUNWAY 4  RUNWAY 22
Latitude: 36-20.592200N36-20.885550N
Longitude: 102-03.204267W102-02.706533W
Elevation: 3668.2 ft.3652.3 ft.
Traffic pattern: leftleft
Runway heading: 045 magnetic, 054 true225 magnetic, 234 true
Touchdown point: yes, no lightsyes, no lights
Obstructions: 15 ft. road, 200 ft. from runway, 50 ft. right of centerline
+20 FT HNGR AT THR 80 FT RIGHT CNTRLN.
15 ft. road, 200 ft. from runway, 35 ft. right of centerline
15 FT ROAD 166 FT FM THR, O BOTH SIDES.

Airport Ownership and Management from official FAA records

Ownership: Privately-owned
Owner: SKYRANCHERS INC.
PO BOX 223
STRATFORD, TX 79084
Phone (806) 753-7866
Manager: ROGER WELLS
BOX 223
STRATFORD, TX 79084
Phone (806) 753-7866

Airport Operational Statistics

Aircraft based on the field: 6
Single engine airplanes: 6
    
Aircraft operations: avg 22/month *
62% local general aviation
38% transient general aviation
* for 12-month period ending 20 September 2017

Additional Remarks

SEWAGE TREATMENT PLANT LCTD SOUTH OF RWY.
FOR CD CTC ALBUQUERQUE ARTCC AT 505-856-4861.

Instrument Procedures

NOTE: All procedures below are presented as PDF files. If you need a reader for these files, you should download the free Adobe Reader.

NOT FOR NAVIGATION. Please procure official charts for flight.
FAA instrument procedures published for use from 21 April 2022 at 0901Z to 19 May 2022 at 0900z.

NOTE: Special Take-Off Minimums/Departure Procedures apply   download (195KB)

Other nearby airports with instrument procedures:

KDUX - Moore County Airport (29 nm S)
E19 - Gruver Municipal Airport (31 nm E)
KDHT - Dalhart Municipal Airport (31 nm SW)
KGUY - Guymon Municipal Airport (33 nm NE)
17K - Boise City Airport (34 nm NW)
 
Loc | Ops | Rwys | IFR | FBO | Links
Com | Nav | Svcs | Stats | Notes

AirBoss

 
Area around H70 (Stratford Field Airport)
 
Road maps at: MapQuest Bing Google
 
Aerial photo
WARNING: Photo may not be current or correct
Aerial photo of H70 (Stratford Field Airport)
Photo by R. Johnson

Do you have a better or more recent aerial photo of Stratford Field Airport that you would like to share? If so, please send us your photo.

 
Sectional chart

 
Airport distance calculator
Flying to Stratford Field Airport? Find the distance to fly.

From to H70

Sunrise and sunset
Times for 16-May-2022
 Local
(UTC-5)
 Zulu
(UTC)
Morning civil twilight06:1311:13
Sunrise06:4211:42
Sunset20:4701:47
Evening civil twilight21:1602:16

Current date and time
Zulu (UTC)  16-May-2022 21:03:16
Local (UTC-5)  16-May-2022 16:03:16
 
METAR
KDUX 
29nm S 
162055Z AUTO 15013G20KT 10SM CLR 29/11 A3001 RMK AO2 T02850111
KDHT 
31nm SW 
162053Z AUTO 18012G25KT 8SM CLR 29/13 A3001 RMK AO2 SLP110 T02890128 58030 TSNO
KGUY 
33nm NE 
162053Z AUTO 16013G24KT 10SM CLR 32/10 A2995 RMK AO2 PK WND 19026/2021 SLP097 T03220100 56034
KEHA 
40nm N 
162055Z AUTO 18019G29KT 10SM CLR 29/07 A3001 RMK AO2 T02890071
KBGD 
50nm SE 
162051Z AUTO 11010G20KT 10SM CLR 30/12 A2998 RMK AO2 SLP110 T03000122 56033
TAF
KDHT 
31nm SW 
161720Z 1618/1718 17015G25KT P6SM SCT070 BKN200 FM170000 17019KT P6SM VCTS SCT080CB SCT100 FM170300 16015KT P6SM SCT050 BKN200 FM170700 16013KT P6SM BKN200 WS015/17040KT FM171600 20017G26KT P6SM SCT200
KGUY 
33nm NE 
161720Z 1618/1718 19014G23KT P6SM SCT070 SCT200 FM170000 17015KT P6SM VCTS SCT070CB BKN100 FM170300 17015KT P6SM SCT050 BKN100 PROB30 1703/1706 4SM +TSRA BKN050CB FM171000 19011KT P6SM SCT200 FM171700 22014G23KT P6SM SCT200
NOTAMs
Click for the latest NOTAMs
NOTAMs are issued by the DoD/FAA and will open in a separate window not controlled by AirNav.

 

 
 

Would you like to see your business listed on this page?

 If your business provides an interesting product or service to pilots, flight crews, aircraft, or users of the Stratford Field Airport, you should consider listing it here.  To start the listing process, click on the button below
 
Add a business
 

Other Pages about Stratford Field Airport

Update a link
 
Copyright © AirNav, LLC. All rights reserved. Privacy Policy  Contact